[Iaude] MPEC U66: 2023 UQ [a=1.64,e=0.27,i=36.0,H=23.3]
    mpec at marsden.cfa.harvard.edu 
    mpec at marsden.cfa.harvard.edu
       
    Wed Oct 18 09:40:57 EDT 2023
    
    
  
M.P.E.C. 2023-U66                              Issued 2023 October 18, 13:39 UT
     The Minor Planet Electronic Circulars contain information on unusual
         minor planets, routine data on comets and natural satellites,
         and occasional editorial announcements.  They are published
    on behalf of Division F of the International Astronomical Union by the
          Minor Planet Center, Smithsonian Astrophysical Observatory,
                          Cambridge, MA 02138, U.S.A.
			  
             Prepared using the Tamkin Foundation Computer Network
                              MPC at CFA.HARVARD.EDU
            URL https://www.minorplanetcenter.net/    ISSN 1523-6714
                                    2023 UQ                                     
Observations:
     K23U00Q*1C2023 10 16.26456001 01 29.957-10 32 52.69         20.91GVEU066G96
     K23U00Q 1C2023 10 16.26979101 01 27.624-10 32 09.17         22.10GVEU066G96
     K23U00Q 1C2023 10 16.27501901 01 25.338-10 31 25.54         21.26GVEU066G96
     K23U00Q 1C2023 10 16.28023501 01 22.991-10 30 42.62         20.95GVEU066G96
     K23U00Q  C2023 10 16.30752501 01 10.835-10 26 55.12         20.7 GVEU066H01
     K23U00Q  C2023 10 16.31206101 01 08.833-10 26 17.23         20.6 GVEU066H01
     K23U00Q  C2023 10 16.32108501 01 04.860-10 25 01.86         20.6 GVEU066H01
     K23U00Q  C2023 10 16.32867801 01 01.515-10 23 58.55         20.5 GVEU066H01
     K23U00Q KC2023 10 16.39892501 00 30.784-10 14 10.21         21.07GVEU066I52
     K23U00Q KC2023 10 16.40301701 00 29.002-10 13 35.87         21.09GVEU066I52
     K23U00Q KC2023 10 16.40711601 00 27.212-10 13 01.49         21.08GVEU066I52
     K23U00Q KC2023 10 16.41385501 00 24.246-10 12 05.26         20.63GVEU066I52
     K23U00Q KC2023 10 17.14119700 55 19.322-08 30 24.95         20.84GVEU066I52
     K23U00Q KC2023 10 17.14247800 55 18.736-08 30 14.40         20.85GVEU066I52
     K23U00Q KC2023 10 17.14376300 55 18.199-08 30 03.20         20.93GVEU066I52
     K23U00Q KC2023 10 17.14504100 55 17.656-08 29 52.91         20.75GVEU066I52
     K23U00Q KC2023 10 17.18456900 55 00.33 -08 24 22.3          20.8 GXEU066858
     K23U00Q KC2023 10 17.19133200 54 57.40 -08 23 25.2          20.5 GXEU066858
     K23U00Q KC2023 10 17.19854000 54 54.30 -08 22 24.9          20.7 GXEU066858
     K23U00Q KC2023 10 18.51563300 45 43.73 -05 16 11.3          21.4 GVEU066474
     K23U00Q KC2023 10 18.52108600 45 41.45 -05 15 25.0          21.5 GVEU066474
     K23U00Q KC2023 10 18.52657000 45 39.15 -05 14 38.9          20.5 GVEU066474
     K23U00Q KC2023 10 18.53202200 45 36.81 -05 13 53.1          21.0 GVEU066474
Observer details:
474 Mount John Observatory, Lake Tekapo.  Observers A. C. Gilmore, P. M.
    Kilmartin.  Measurer P. M. Kilmartin.  1.0-m f/7.7 reflector + CCD.
858 Tebbutt Observatory, Edgewood.  Observer F. B. Zoltowski.  0.51-m f/8.1
    Schmidt-Cassegrain + CCD.
G96 Mt. Lemmon Survey.  Observer D. C. Fuls.  Measurers E. C. Beshore, D. Fay,
    J. B. Fazekas, D. C. Fuls, A. R. Gibbs, A. D. Grauer, H. Groeller, J. K.
    Hogan, R. A. Kowalski, S. M. Larson, G. J. Leonard, D. Rankin, R. L.
    Seaman, F. C. Shelly, K. W. Wierzchos.  1.5-m reflector + 10K CCD.
H01 Magdalena Ridge Observatory, Socorro.  Observers W. H. Ryan, E. V. Ryan.
    Measurer W. H. Ryan.  2.4-m f/8.9 Ritchey-Chretien + CCD.
I52 Steward Observatory, Mt. Lemmon Station.  Observers J. K. Hogan, G. J.
    Leonard.  Measurers E. C. Beshore, D. Fay, J. B. Fazekas, D. C. Fuls, A.
    R. Gibbs, A. D. Grauer, H. Groeller, J. K. Hogan, R. A. Kowalski, S. M.
    Larson, G. J. Leonard, D. Rankin, R. L. Seaman, F. C. Shelly, K. W.
    Wierzchos.  1.0-m prime focus + CCD.
Orbital elements:
2023 UQ                                                  Earth MOID = 0.2067 AU
Epoch 2023 Sept. 13.0 TT = JDT 2460200.5                Bell                    
M 347.86102              (2000.0)            P               Q                  
n   0.46919711     Peri.  349.02025     +0.95935102     -0.14949648             
a   1.6402089      Node    24.03227     +0.28221537     +0.50716783             
e   0.2685448      Incl.   35.99836     +0.00034054     +0.84878242             
P   2.10           H   23.30          G   0.15           U   9                  
Residuals in seconds of arc
231016 G96  0.3+  0.1-    231016 I52  0.1-  0.1-    231017 858  0.1-  0.1-
231016 G96  0.1-  0.1-    231016 I52  0.0   0.0     231017 858  0.1+  0.1+
231016 G96  0.3+  0.0     231016 I52  0.0   0.1+    231017 858  0.5+  0.2-
231016 G96  0.4-  0.6-    231016 I52  0.3-  0.2-    231018 474  0.5-  0.0
231016 H01  0.0   0.0     231017 I52  0.2+  0.2-    231018 474  0.0   0.2+
231016 H01  0.0   0.0     231017 I52  0.3-  0.4-    231018 474  0.4+  0.1-
231016 H01  0.0   0.0     231017 I52  0.0   0.0     231018 474  0.0   0.3-
231016 H01  0.0   0.1-    231017 I52  0.1+  0.4-
Ephemeris:
2023 UQ                  a,e,i = 1.64, 0.27, 36                  q = 1.1997
Date    TT    R. A. (2000) Decl.     Delta      r    Elong.  Phase     V
2023 09 18    03 38 42.3 -43 56 48   0.3904  1.2116   112.9    49.8    23.5
...
2023 10 03    02 32 59.5 -34 09 43   0.2695  1.2007   132.9    37.6    22.4
...
2023 10 11    01 39 26.7 -21 54 10   0.2262  1.1999   150.0    24.6    21.6
...
2023 10 17    00 56 17.5 -08 49 54   0.2145  1.2016   160.8    15.8    21.2
2023 10 18    00 49 18.0 -06 29 21   0.2148  1.2020   161.4    15.4    21.2
2023 10 19    00 42 25.9 -04 08 35   0.2156  1.2026   161.3    15.4    21.2
...
2023 10 25    00 04 50.7 +09 08 15   0.2335  1.2069   152.7    22.2    21.6
...
2023 11 02    23 26 52.5 +22 25 31   0.2843  1.2156   136.9    33.9    22.4
...
2023 11 17    22 50 18.2 +35 38 34   0.4202  1.2404   117.5    45.0    23.6
M. P. C. Staff               (C) Copyright 2023 MPC           M.P.E.C. 2023-U66
    
    
More information about the Iaude
mailing list